KQ4NAL Weather Reports


Display with metric or nautical units.
time (UTC)temp
F
wind
direction
speed
MPH
gust
MPH
rain 1hr
in
rain 24hr
in
rain mn
in
humidity
%
barometer
mb
20260906234205 76 352 2.0 2.0 0.00 0.00 0.00 59 1016.4
20260906233704 76 347 1.0 1.0 0.00 0.00 0.00 57 1016.2
20260906233203 77 6 2.0 2.0 0.00 0.00 0.00 56 1016.5
20260906232658 77 2 2.0 3.0 0.00 0.00 0.00 55 1016.3
20260906232153 78 353 1.0 2.0 0.00 0.00 0.00 55 1016.6
20260906231653 78 336 1.0 1.0 0.00 0.00 0.00 54 1016.6
20260906231148 78 6 2.0 2.0 0.00 0.00 0.00 54 1016.8
20260906230647 78 356 3.0 3.0 0.00 0.00 0.00 54 1016.5
20260906230142 79 11 3.0 3.0 0.00 0.00 0.00 53 1016.5
20260906225636 79 2 2.0 2.0 0.00 0.00 0.00 52 1016.4
20260906225132 79 353 2.0 3.0 0.00 0.00 0.00 52 1016.3
20260906224627 80 14 1.0 1.0 0.00 0.00 0.00 52 1016.4
20260906224124 80 7 2.0 2.0 0.00 0.00 0.00 52 1016.2
20260906223620 80 8 3.0 3.0 0.00 0.00 0.00 51 1016.2
20260906223119 81 344 2.0 2.0 0.00 0.00 0.00 49 1016.2
20260906222618 81 14 4.0 6.0 0.00 0.00 0.00 49 1016.1
20260906222116 80 5 2.0 2.0 0.00 0.00 0.00 51 1016.2
20260906221615 80 347 5.0 6.0 0.00 0.00 0.00 50 1016.1
20260906221110 81 15 5.0 7.0 0.00 0.00 0.00 49 1016.1
20260906220605 81 30 5.0 7.0 0.00 0.00 0.00 46 1016.3
20260906220101 81 355 2.0 2.0 0.00 0.00 0.00 49 1016.3
20260906215559 82 7 7.0 8.0 0.00 0.00 0.00 48 1016.2
20260906215058 82 21 2.0 2.0 0.00 0.00 0.00 47 1016.1
20260906214556 82 18 4.0 6.0 0.00 0.00 0.00 46 1016.2
20260906214051 82 107 2.0 2.0 0.00 0.00 0.00 47 1016.2
20260906213550 83 353 3.0 3.0 0.00 0.00 0.00 46 1016.2
20260906213045 82 347 0.0 0.0 0.00 0.00 0.00 47 1016.3
20260906212537 82 37 5.0 6.0 0.00 0.00 0.00 46 1016.2
20260906212033 82 344 3.0 3.0 0.00 0.00 0.00 47 1016.4
20260906211533 82 351 0.0 1.0 0.00 0.00 0.00 45 1016.4
20260906211029 82 5 3.0 5.0 0.00 0.00 0.00 48 1016.4
20260906210524 82 351 7.0 9.0 0.00 0.00 0.00 45 1016.4
20260906210023 83 345 7.0 9.0 0.00 0.00 0.00 45 1016.4
20260906205520 83 319 3.0 5.0 0.00 0.00 0.00 46 1016.2
20260906205015 83 12 2.0 3.0 0.00 0.00 0.00 45 1016.3
20260906204514 83 13 3.0 6.0 0.00 0.00 0.00 44 1016.3
20260906204009 83 17 6.0 7.0 0.00 0.00 0.00 45 1016.1
20260906203504 82 355 3.0 5.0 0.00 0.00 0.00 46 1016.1
20260906203002 82 352 3.0 5.0 0.00 0.00 0.00 46 1016.2
20260906202501 83 24 7.0 9.0 0.00 0.00 0.00 45 1016.2
20260906201956 82 336 9.0 14.0 0.00 0.00 0.00 47 1016.0
20260906201450 83 12 12.0 14.0 0.00 0.00 0.00 46 1016.4
20260906200950 82 18 7.0 10.0 0.00 0.00 0.00 46 1016.4
20260906200446 82 328 2.0 2.0 0.00 0.00 0.00 47 1016.4
20260906195946 82 18 4.0 7.0 0.00 0.00 0.00 46 1016.2
20260906195443 83 355 3.0 3.0 0.00 0.00 0.00 44 1016.6
20260906194938 82 320 2.0 3.0 0.00 0.00 0.00 45 1016.3
20260906194434 82 354 3.0 5.0 0.00 0.00 0.00 46 1016.2
20260906193930 83 317 3.0 6.0 0.00 0.00 0.00 46 1016.2
20260906193430 83 5 0.0 0.0 0.00 0.00 0.00 46 1016.3
20260906192925 83 31 4.0 5.0 0.00 0.00 0.00 50 1016.5
20260906192420 82 328 5.0 6.0 0.00 0.00 0.00 49 1016.3
20260906191919 82 14 7.0 8.0 0.00 0.00 0.00 50 1016.4
20260906191414 83 10 8.0 11.0 0.00 0.00 0.00 50 1016.5
20260906190913 82 3 4.0 5.0 0.00 0.00 0.00 52 1016.3
20260906190412 82 358 8.0 10.0 0.00 0.00 0.00 51 1016.3
20260906185908 81 5 4.0 6.0 0.00 0.00 0.00 54 1016.4
20260906185407 83 16 9.0 16.0 0.00 0.00 0.00 51 1016.5
20260906184906 82 349 2.0 3.0 0.00 0.00 0.00 52 1016.6
20260906184401 83 356 4.0 6.0 0.00 0.00 0.00 51 1016.6
20260906183857 82 4 7.0 8.0 0.00 0.00 0.00 52 1016.5
20260906183353 83 319 2.0 7.0 0.00 0.00 0.00 54 1016.8
20260906182853 81 341 5.0 8.0 0.00 0.00 0.00 54 1016.4
20260906182349 81 14 5.0 7.0 0.00 0.00 0.00 56 1016.7
20260906181844 82 14 2.0 3.0 0.00 0.00 0.00 53 1016.6
20260906181340 82 359 3.0 3.0 0.00 0.00 0.00 53 1016.6
20260906180835 82 23 6.0 7.0 0.00 0.00 0.00 53 1016.7
20260906180330 81 340 5.0 6.0 0.00 0.00 0.00 54 1016.5
20260906175827 81 1 3.0 3.0 0.00 0.00 0.00 54 1016.7
20260906175322 81 355 4.0 5.0 0.00 0.00 0.00 55 1016.7
20260906174822 81 18 8.0 10.0 0.00 0.00 0.00 54 1016.8
20260906174316 80 25 6.0 7.0 0.00 0.00 0.00 55 1016.8
20260906173811 81 10 7.0 8.0 0.00 0.00 0.00 55 1016.8
20260906173307 81 341 3.0 3.0 0.00 0.00 0.00 55 1017.0
20260906172805 80 305 6.0 8.0 0.00 0.00 0.00 56 1016.8
20260906172305 81 15 4.0 6.0 0.00 0.00 0.00 55 1017.2
20260906171756 81 6 1.0 2.0 0.00 0.00 0.00 55 1017.0
20260906171251 80 359 5.0 5.0 0.00 0.00 0.00 57 1016.8
20260906170747 81 327 1.0 2.0 0.00 0.00 0.00 56 1016.9
20260906170243 80 2 1.0 2.0 0.00 0.00 0.00 56 1017.0
20260906165738 79 319 5.0 7.0 0.00 0.00 0.00 57 1016.9
20260906165238 79 349 5.0 7.0 0.00 0.00 0.00 58 1017.2
20260906164738 80 1 4.0 6.0 0.00 0.00 0.00 57 1016.9
20260906164233 80 356 6.0 7.0 0.00 0.00 0.00 58 1017.2
20260906163729 78 23 5.0 7.0 0.00 0.00 0.00 60 1017.4
20260906163225 79 23 4.0 5.0 0.00 0.00 0.00 60 1017.4
20260906162721 78 12 8.0 9.0 0.00 0.00 0.00 62 1017.6
20260906162216 78 356 5.0 7.0 0.00 0.00 0.00 63 1017.7
20260906161710 78 325 5.0 8.0 0.00 0.00 0.00 64 1017.4
20260906161210 78 94 4.0 6.0 0.00 0.00 0.00 64 1017.8
20260906160709 78 344 6.0 9.0 0.00 0.00 0.00 65 1017.7
20260906160203 78 2 2.0 5.0 0.00 0.00 0.00 67 1018.0
20260906155700 77 354 2.0 2.0 0.00 0.00 0.00 67 1017.9
20260906155156 77 330 5.0 8.0 0.00 0.00 0.00 67 1018.0
20260906154650 77 354 4.0 5.0 0.00 0.00 0.00 66 1017.7
20260906154145 78 17 2.0 3.0 0.00 0.00 0.00 68 1017.8
20260906153644 77 16 7.0 9.0 0.00 0.00 0.00 67 1017.6
20260906153139 77 331 6.0 8.0 0.00 0.00 0.00 68 1017.6
20260906152633 76 23 6.0 7.0 0.00 0.00 0.00 68 1017.4
20260906152127 77 356 0.0 0.0 0.00 0.00 0.00 69 1017.4
20260906151622 77 355 2.0 2.0 0.00 0.00 0.00 69 1017.6
20260906151118 76 358 6.0 8.0 0.00 0.00 0.00 70 1017.6
20260906150613 75 20 8.0 10.0 0.00 0.00 0.00 71 1017.6
20260906150109 76 349 1.0 2.0 0.00 0.00 0.00 72 1017.3
20260906145607 76 331 4.0 5.0 0.00 0.00 0.00 72 1017.1
20260906145101 76 72 7.0 9.0 0.00 0.00 0.00 72 1017.0
20260906144550 76 357 0.0 0.0 0.00 0.00 0.00 72 1017.2
20260906144046 75 3 2.0 2.0 0.00 0.00 0.00 74 1017.2
20260906143541 75 82 3.0 3.0 0.00 0.00 0.00 75 1017.2
20260906143037 74 11 2.0 3.0 0.00 0.00 0.00 75 1017.2
20260906142531 73 14 5.0 7.0 0.00 0.00 0.00 78 1017.2
20260906142026 73 352 1.0 2.0 0.00 0.00 0.00 77 1017.3
20260906141520 73 3 1.0 2.0 0.00 0.00 0.00 78 1017.3
20260906141015 72 344 3.0 5.0 0.00 0.00 0.00 78 1017.1
20260906140515 72 340 3.0 5.0 0.00 0.00 0.00 78 1017.2
20260906140014 72 8 7.0 8.0 0.00 0.00 0.00 78 1017.2
20260906135511 72 3 1.0 2.0 0.00 0.00 0.00 79 1017.2
20260906135007 71 329 4.0 6.0 0.00 0.00 0.00 79 1017.0
20260906134503 71 4 1.0 2.0 0.00 0.00 0.00 79 1017.2
20260906134003 71 355 3.0 5.0 0.00 0.00 0.00 80 1016.8
20260906133458 72 12 4.0 6.0 0.00 0.00 0.00 78 1017.0
20260906132954 71 344 0.0 1.0 0.00 0.00 0.00 80 1017.1
20260906132449 71 3 3.0 5.0 0.00 0.00 0.00 80 1017.0
20260906131944 70 332 2.0 3.0 0.00 0.00 0.00 81 1017.1
20260906131439 70 6 6.0 8.0 0.00 0.00 0.00 81 1017.0
20260906130935 70 317 3.0 3.0 0.00 0.00 0.00 83 1017.1
20260906130434 69 348 0.0 0.0 0.00 0.00 0.00 85 1017.1
20260906125928 68 359 0.0 0.0 0.00 0.00 0.00 86 1017.0
20260906125426 68 342 3.0 5.0 0.00 0.00 0.00 86 1017.1
20260906124920 68 4 3.0 3.0 0.00 0.00 0.00 86 1016.9
20260906124416 68 345 1.0 2.0 0.00 0.00 0.00 87 1016.9
20260906123915 68 10 4.0 5.0 0.00 0.00 0.00 88 1016.6
20260906123410 68 349 2.0 2.0 0.00 0.00 0.00 90 1016.8
20260906122910 68 354 1.0 1.0 0.00 0.00 0.00 90 1016.6
20260906122405 68 3 1.0 2.0 0.00 0.00 0.00 90 1016.6
20260906121902 68 8 3.0 5.0 0.00 0.00 0.00 92 1016.7
20260906121357 68 349 2.0 3.0 0.00 0.00 0.00 92 1016.5
20260906120854 68 338 2.0 3.0 0.00 0.00 0.00 93 1016.3
20260906120349 67 335 4.0 5.0 0.00 0.00 0.00 94 1016.4
20260906115845 67 357 2.0 2.0 0.00 0.00 0.00 95 1016.1
20260906115340 67 8 0.0 1.0 0.00 0.00 0.00 96 1016.1
20260906114839 67 353 1.0 2.0 0.00 0.00 0.00 96 1016.0
20260906114335 68 330 3.0 3.0 0.00 0.00 0.00 97 1016.1
20260906113830 68 2 3.0 3.0 0.00 0.00 0.00 97 1015.8
20260906113329 68 2 3.0 5.0 0.00 0.00 0.00 98 1015.8
20260906112824 68 337 2.0 2.0 0.00 0.00 0.00 99 1015.8
20260906112320 68 340 2.0 2.0 0.00 0.00 0.00 99 1015.7
20260906111815 69 347 1.0 2.0 0.00 0.00 0.00 99 1015.7
20260906111314 69 338 1.0 2.0 0.00 0.00 0.00 99 1015.6
20260906110809 69 2 1.0 2.0 0.00 0.00 0.00 99 1015.8
20260906110305 69 350 3.0 3.0 0.00 0.00 0.00 99 1015.7
20260906105804 69 359 3.0 3.0 0.00 0.00 0.00 99 1015.6
20260906105300 69 14 3.0 3.0 0.00 0.00 0.00 99 1015.4
20260906104755 69 10 2.0 2.0 0.00 0.00 0.00 99 1015.3
20260906104253 69 1 2.0 2.0 0.00 0.00 0.00 99 1015.5
20260906103752 69 352 2.0 2.0 0.00 0.00 0.00 99 1015.2
20260906103246 70 353 7.0 8.0 0.00 0.00 0.00 99 1015.1
20260906102742 70 5 2.0 3.0 0.00 0.00 0.00 99 1015.1
20260906102240 70 351 2.0 2.0 0.00 0.00 0.00 99 1015.0
20260906101736 70 359 0.0 1.0 0.00 0.00 0.00 99 1015.2
20260906101230 70 6 3.0 3.0 0.00 0.00 0.00 99 1015.0
20260906100726 70 355 3.0 3.0 0.00 0.00 0.00 99 1014.9
20260906100226 70 5 2.0 2.0 0.00 0.00 0.00 99 1014.8
20260906095721 70 346 2.0 2.0 0.00 0.00 0.00 99 1015.1
20260906095216 70 355 2.0 2.0 0.00 0.00 0.00 99 1015.0
20260906094715 70 16 2.0 2.0 0.00 0.00 0.00 99 1014.9
20260906094210 70 356 1.0 1.0 0.00 0.00 0.00 99 1014.9
20260906093707 70 1 1.0 2.0 0.00 0.00 0.00 99 1014.8
20260906093201 70 322 1.0 1.0 0.00 0.00 0.00 99 1014.7
20260906092657 70 348 2.0 2.0 0.00 0.00 0.00 99 1014.8
20260906092156 70 357 1.0 2.0 0.00 0.00 0.00 99 1014.6
20260906091652 70 355 0.0 0.0 0.00 0.00 0.00 99 1014.7
20260906091149 70 341 1.0 1.0 0.00 0.00 0.00 99 1014.6
20260906090645 70 346 0.0 0.0 0.00 0.00 0.00 99 1014.6
20260906090144 70 345 0.0 1.0 0.00 0.00 0.00 99 1014.5
20260906085642 70 348 0.0 0.0 0.00 0.00 0.00 99 1014.4
20260906085137 70 10 2.0 2.0 0.00 0.00 0.00 99 1014.5
20260906084632 70 9 1.0 2.0 0.00 0.00 0.00 99 1014.4
20260906084131 70 352 0.0 0.0 0.00 0.00 0.00 99 1014.3
20260906083626 70 347 0.0 0.0 0.00 0.00 0.00 99 1014.7
20260906083121 70 345 1.0 2.0 0.00 0.00 0.00 99 1014.5
20260906082617 70 340 1.0 1.0 0.00 0.00 0.00 99 1014.3
20260906082112 70 11 4.0 6.0 0.00 0.00 0.00 99 1014.5
20260906081608 70 358 0.0 2.0 0.00 0.00 0.00 99 1014.2
20260906081103 70 335 0.0 1.0 0.00 0.00 0.00 99 1014.4
20260906080559 70 337 1.0 1.0 0.00 0.00 0.00 99 1014.3
20260906080055 70 340 0.0 0.0 0.00 0.00 0.00 99 1014.3
20260906075549 70 347 0.0 0.0 0.00 0.00 0.00 99 1014.3
20260906075044 70 359 3.0 3.0 0.00 0.00 0.00 99 1014.2
20260906074539 70 356 1.0 2.0 0.00 0.00 0.00 99 1014.2
20260906074037 70 0 1.0 2.0 0.00 0.00 0.00 99 1014.1
20260906073533 70 334 0.0 0.0 0.00 0.00 0.00 99 1014.2
20260906073029 70 5 1.0 2.0 0.00 0.00 0.00 99 1014.5
20260906072529 70 347 3.0 3.0 0.00 0.00 0.00 99 1014.3
20260906072025 70 344 0.0 1.0 0.00 0.00 0.00 99 1014.2
20260906071521 70 342 2.0 2.0 0.00 0.00 0.00 99 1014.4
20260906071016 70 344 0.0 0.0 0.00 0.00 0.00 99 1014.4
20260906070512 70 347 0.0 0.0 0.00 0.00 0.00 99 1014.2
20260906070008 70 344 0.0 0.0 0.00 0.00 0.00 99 1014.4
20260906065507 70 349 0.0 0.0 0.00 0.00 0.00 99 1014.5
20260906065003 70 348 0.0 0.0 0.00 0.00 0.00 99 1014.4
20260906064459 70 351 0.0 0.0 0.00 0.00 0.00 99 1014.6
20260906063954 70 348 0.0 0.0 0.00 0.00 0.00 99 1014.4
20260906063449 70 342 0.0 0.0 0.00 0.00 0.00 99 1014.5
20260906062944 70 344 0.0 0.0 0.00 0.00 0.00 99 1014.5
20260906062439 70 354 0.0 0.0 0.00 0.00 0.00 99 1014.5
20260906061933 70 346 0.0 0.0 0.00 0.00 0.00 99 1014.7
20260906061430 69 355 0.0 0.0 0.00 0.00 0.00 99 1014.5
20260906060924 70 344 0.0 0.0 0.00 0.00 0.00 99 1014.7
20260906060421 70 344 0.0 0.0 0.00 0.00 0.00 99 1014.4
20260906055917 70 344 0.0 0.0 0.00 0.00 0.00 99 1014.6
20260906055413 70 351 2.0 2.0 0.00 0.00 0.00 99 1014.6
20260906054908 70 359 1.0 2.0 0.00 0.00 0.00 99 1014.7
20260906054403 69 359 2.0 2.0 0.00 0.00 0.00 99 1014.7
20260906053859 69 351 1.0 2.0 0.00 0.00 0.00 99 1014.6
20260906053355 69 349 1.0 1.0 0.00 0.00 0.00 99 1014.7
20260906052850 69 352 0.0 1.0 0.00 0.00 0.00 99 1014.6
20260906052347 69 358 1.0 1.0 0.00 0.00 0.00 99 1014.5
20260906051843 69 344 0.0 0.0 0.00 0.00 0.00 99 1014.6
20260906051343 69 343 0.0 0.0 0.00 0.00 0.00 99 1014.7
20260906050839 69 343 0.0 0.0 0.00 0.00 0.00 99 1014.6
20260906050333 69 344 0.0 0.0 0.00 0.00 0.00 99 1014.8
20260906045832 69 344 0.0 0.0 0.00 0.00 0.00 99 1014.4
20260906045327 69 344 0.0 0.0 0.00 0.00 0.00 99 1014.3
20260906044823 69 344 0.0 0.0 0.00 0.00 0.00 99 1014.5
20260906044323 69 344 0.0 0.0 0.00 0.00 0.00 99 1014.2
20260906043819 69 345 0.0 0.0 0.00 0.00 0.00 99 1014.1
20260906043314 69 345 0.0 0.0 0.00 0.00 0.00 99 1014.1
20260906042809 69 345 0.0 0.0 0.00 0.00 0.00 99 1014.0
20260906042308 69 345 0.0 0.0 0.00 0.00 0.00 99 1014.3
20260906041803 69 346 0.0 0.0 0.00 0.00 0.00 99 1013.8
20260906041253 69 342 0.0 0.0 0.00 0.00 0.00 99 1013.9
20260906040748 69 339 0.0 0.0 0.00 0.00 0.00 99 1014.0
20260906040244 69 344 0.0 0.0 0.00 0.00 0.00 99 1014.2
20260906035739 69 343 0.0 0.0 0.00 0.06 0.06 99 1014.0
20260906035234 69 344 0.0 0.0 0.00 0.06 0.06 99 1014.0
20260906034734 70 344 0.0 0.0 0.00 0.06 0.06 99 1014.0
20260906034228 69 344 0.0 0.0 0.00 0.06 0.06 99 1013.9
20260906033719 70 344 0.0 0.0 0.00 0.06 0.06 99 1013.9
20260906033219 70 344 0.0 0.0 0.00 0.06 0.06 99 1013.9
20260906032716 70 344 0.0 0.0 0.00 0.06 0.06 99 1014.0
20260906032215 70 341 0.0 0.0 0.00 0.06 0.06 99 1013.8
20260906031711 70 344 0.0 0.0 0.00 0.06 0.06 99 1013.8
20260906031206 70 348 0.0 0.0 0.00 0.06 0.06 99 1013.7
20260906030705 70 345 0.0 0.0 0.00 0.06 0.06 99 1013.7
20260906030201 70 347 0.0 0.0 0.00 0.06 0.06 99 1013.7
20260906025659 70 347 0.0 0.0 0.00 0.06 0.06 99 1013.7
20260906025154 70 347 0.0 0.0 0.00 0.06 0.06 99 1013.9
20260906024649 70 340 0.0 0.0 0.00 0.06 0.06 99 1013.9
20260906024148 70 345 0.0 0.0 0.00 0.06 0.06 99 1013.9
20260906023644 71 347 0.0 0.0 0.00 0.06 0.06 99 1013.6
20260906023144 71 349 0.0 0.0 0.00 0.06 0.06 99 1013.6
20260906022639 71 1 0.0 0.0 0.00 0.06 0.06 99 1013.7
20260906022135 71 355 0.0 0.0 0.00 0.06 0.06 99 1013.8
20260906021631 71 337 0.0 0.0 0.00 0.06 0.06 99 1013.9
20260906021128 71 342 0.0 0.0 0.00 0.06 0.06 99 1014.1
20260906020623 71 348 0.0 0.0 0.00 0.06 0.06 99 1014.0
20260906020118 71 344 0.0 0.0 0.05 0.06 0.06 99 1014.2
20260906015613 71 346 0.0 0.0 0.05 0.06 0.06 99 1014.2
20260906015111 71 345 0.0 0.0 0.00 0.05 0.05 99 1014.1
20260906014606 71 0 0.0 1.0 0.00 0.05 0.05 99 1013.9
20260906014103 72 353 1.0 2.0 0.00 0.05 0.05 99 1014.3
20260906013558 72 349 0.0 0.0 0.00 0.05 0.05 99 1014.1
20260906013053 72 8 4.0 5.0 0.00 0.05 0.05 99 1014.0
20260906012548 72 357 0.0 1.0 0.00 0.05 0.05 99 1013.9
20260906012047 72 339 1.0 2.0 0.00 0.05 0.05 99 1014.2
20260906011544 72 7 0.0 0.0 0.00 0.05 0.05 99 1014.3
20260906011043 72 302 0.0 0.0 0.07 0.05 0.05 99 1014.1
20260906010539 72 347 0.0 0.0 0.07 0.05 0.05 99 1013.7
20260906010035 72 345 0.0 0.0 0.00 0.04 0.04 98 1013.4
20260906005534 72 311 0.0 0.0 0.00 0.04 0.04 98 1013.5
20260906005033 73 341 0.0 0.0 0.00 0.04 0.04 97 1013.5
20260906004533 73 347 0.0 0.0 0.00 0.04 0.04 97 1013.6
20260906004028 73 2 1.0 2.0 0.12 0.04 0.04 96 1013.4
20260906003523 73 342 0.0 1.0 0.17 0.04 0.04 95 1013.6
20260906003019 74 11 3.0 3.0 0.12 0.02 0.02 93 1013.9
20260906002513 74 355 3.0 3.0 0.07 0.01 0.01 92 1013.5
20260906002008 75 10 7.0 9.0 0.00 0.00 0.00 90 1013.5
20260906001504 76 23 3.0 3.0 0.00 0.00 0.00 88 1013.4
20260906000958 77 12 4.0 7.0 0.00 0.00 0.00 87 1013.2
20260906000455 78 354 6.0 7.0 0.00 0.00 0.00 87 1013.4
20260905235954 78 350 5.0 6.0 0.00 0.00 0.00 88 1013.3
20260905235448 78 352 0.0 0.0 0.00 0.00 0.00 87 1012.8
20260905234943 78 350 0.0 0.0 0.00 0.00 0.00 87 1012.7